LGR888 LESU-LEAP

Flight info

Callsign LGR888
Flight time 0h 44m
Altitude 11000
Route SU500 DCT BERGA DCT OLOTI DCT GE420
Aircraft R66/L-SFG/C

Departure

Time 2026-05-07 05:04
Airport Pirineus - la Seu d'Urgel Airport (LESU)

Arrival

Time 2026-05-07 05:48
Airport Ampuriabrava Airfield (LEAP)
Time Latitude Longitude Altitude Speed Heading
2026-05-07 04:49 42.33769 1.40544 2587 ft 0 kts 216°
2026-05-07 04:57 42.33765 1.40538 2589 ft 5 kts 262°
2026-05-07 04:57 42.33768 1.40494 2596 ft 4 kts 12°
2026-05-07 04:58 42.33778 1.40495 2596 ft 3 kts 97°
2026-05-07 04:58 42.33757 1.40533 2591 ft 6 kts 146°
2026-05-07 04:58 42.33751 1.40557 2589 ft 4 kts 150°
2026-05-07 04:58 42.33726 1.40595 2587 ft 4 kts 160°
2026-05-07 04:59 42.33692 1.40605 2588 ft 4 kts 226°
2026-05-07 04:59 42.33649 1.40563 2594 ft 5 kts 141°
2026-05-07 04:59 42.33630 1.40589 2587 ft 3 kts 131°
2026-05-07 04:59 42.33622 1.40601 2584 ft 0 kts 127°
2026-05-07 05:00 42.33601 1.40635 2588 ft 6 kts 56°
2026-05-07 05:00 42.33678 1.40720 2610 ft 26 kts 34°
2026-05-07 05:00 42.33881 1.40882 2614 ft 32 kts 27°
2026-05-07 05:01 42.34022 1.40991 2600 ft 20 kts 51°
2026-05-07 05:01 42.34135 1.41068 2594 ft 14 kts 75°
2026-05-07 05:01 42.34177 1.41093 2596 ft 4 kts 54°
2026-05-07 05:01 42.34240 1.41155 2615 ft 17 kts 51°
2026-05-07 05:02 42.34376 1.41267 2619 ft 21 kts 54°
2026-05-07 05:02 42.34477 1.41397 2604 ft 19 kts 66°
2026-05-07 05:02 42.34524 1.41473 2591 ft 5 kts 69°
2026-05-07 05:02 42.34535 1.41533 2588 ft 7 kts 24°
2026-05-07 05:03 42.34587 1.41531 2602 ft 11 kts 317°
2026-05-07 05:03 42.34410 1.41301 2634 ft 79 kts 213°
2026-05-07 05:03 42.33823 1.40818 2749 ft 113 kts 212°
2026-05-07 05:03 42.33339 1.40000 2916 ft 117 kts 253°
2026-05-07 05:04 42.33449 1.39102 3457 ft 83 kts 316°
2026-05-07 05:04 42.33738 1.38535 3996 ft 72 kts 315°
2026-05-07 05:04 42.33944 1.37863 4358 ft 82 kts 285°
2026-05-07 05:04 42.33823 1.37058 4555 ft 106 kts 249°
2026-05-07 05:05 42.33219 1.36312 4456 ft 130 kts 204°
2026-05-07 05:05 42.32310 1.36202 4372 ft 135 kts 184°
2026-05-07 05:05 42.31483 1.35611 4236 ft 136 kts 225°
2026-05-07 05:05 42.31213 1.34519 4464 ft 116 kts 273°
2026-05-07 05:06 42.31565 1.33636 4775 ft 102 kts 316°
2026-05-07 05:06 42.31988 1.32922 5101 ft 96 kts 300°
2026-05-07 05:06 42.32045 1.32031 5356 ft 98 kts 258°
2026-05-07 05:06 42.31639 1.31313 5610 ft 98 kts 217°
2026-05-07 05:07 42.31060 1.30884 5900 ft 95 kts 206°
2026-05-07 05:07 42.30392 1.30904 6151 ft 99 kts 165°
2026-05-07 05:07 42.29895 1.31524 6411 ft 101 kts 124°
2026-05-07 05:07 42.29734 1.32438 6686 ft 100 kts 109°
2026-05-07 05:08 42.29477 1.33287 6976 ft 98 kts 111°
2026-05-07 05:08 42.29417 1.34195 7265 ft 97 kts 95°
2026-05-07 05:08 42.29397 1.35103 7576 ft 95 kts 95°
2026-05-07 05:08 42.29456 1.35989 7865 ft 96 kts 82°
2026-05-07 05:09 42.29536 1.36881 8081 ft 104 kts 86°
2026-05-07 05:09 42.29474 1.37942 8111 ft 119 kts 99°
2026-05-07 05:09 42.29271 1.39082 8125 ft 127 kts 104°
2026-05-07 05:09 42.29048 1.40235 8133 ft 130 kts 104°
2026-05-07 05:10 42.28818 1.41413 8140 ft 131 kts 104°
2026-05-07 05:10 42.28578 1.42618 8140 ft 132 kts 104°
2026-05-07 05:10 42.28335 1.43833 8140 ft 132 kts 104°
2026-05-07 05:10 42.28096 1.45029 8194 ft 129 kts 104°
2026-05-07 05:11 42.27863 1.46207 8276 ft 126 kts 104°
2026-05-07 05:11 42.27640 1.47346 8350 ft 126 kts 104°
2026-05-07 05:11 42.27421 1.48505 8426 ft 126 kts 103°
2026-05-07 05:11 42.27208 1.49656 8500 ft 125 kts 103°
2026-05-07 05:12 42.26996 1.50796 8571 ft 126 kts 103°
2026-05-07 05:12 42.26787 1.51924 8632 ft 126 kts 103°
2026-05-07 05:12 42.26576 1.53062 8694 ft 126 kts 103°
2026-05-07 05:12 42.26360 1.54228 8766 ft 126 kts 103°
2026-05-07 05:13 42.26143 1.55392 8838 ft 126 kts 103°
2026-05-07 05:13 42.25927 1.56557 8910 ft 126 kts 103°
2026-05-07 05:13 42.25714 1.57698 8982 ft 126 kts 103°
2026-05-07 05:13 42.25496 1.58869 9052 ft 126 kts 103°
2026-05-07 05:14 42.25278 1.60042 9122 ft 126 kts 103°
2026-05-07 05:14 42.25061 1.61201 9140 ft 130 kts 103°
2026-05-07 05:14 42.24839 1.62402 9141 ft 132 kts 102°
2026-05-07 05:14 42.24617 1.63603 9146 ft 133 kts 103°
2026-05-07 05:15 42.24391 1.64821 9141 ft 134 kts 102°
2026-05-07 05:15 42.24166 1.66038 9143 ft 134 kts 103°
2026-05-07 05:15 42.23940 1.67260 9142 ft 134 kts 103°
2026-05-07 05:15 42.23713 1.68488 9143 ft 134 kts 103°
2026-05-07 05:16 42.23486 1.69708 9145 ft 134 kts 103°
2026-05-07 05:16 42.23260 1.70926 9135 ft 134 kts 103°
2026-05-07 05:16 42.23033 1.72146 9141 ft 133 kts 103°
2026-05-07 05:16 42.22807 1.73364 9142 ft 134 kts 103°
2026-05-07 05:17 42.22578 1.74587 9141 ft 134 kts 103°
2026-05-07 05:17 42.22350 1.75807 9139 ft 134 kts 103°
2026-05-07 05:17 42.22123 1.77020 9141 ft 134 kts 103°
2026-05-07 05:17 42.21892 1.78253 9138 ft 134 kts 103°
2026-05-07 05:18 42.21665 1.79470 9138 ft 135 kts 103°
2026-05-07 05:18 42.21434 1.80703 9137 ft 134 kts 103°
2026-05-07 05:18 42.21204 1.81933 9123 ft 135 kts 103°
2026-05-07 05:18 42.20972 1.83170 9087 ft 137 kts 103°
2026-05-07 05:19 42.20737 1.84427 9052 ft 137 kts 103°
2026-05-07 05:19 42.20503 1.85674 9014 ft 138 kts 103°
2026-05-07 05:19 42.20267 1.86928 8977 ft 138 kts 103°
2026-05-07 05:19 42.20032 1.88180 8941 ft 138 kts 103°
2026-05-07 05:20 42.19792 1.89453 8903 ft 138 kts 103°
2026-05-07 05:20 42.19555 1.90712 8866 ft 138 kts 103°
2026-05-07 05:20 42.19319 1.91960 8825 ft 138 kts 103°
2026-05-07 05:20 42.19081 1.93219 8785 ft 139 kts 103°
2026-05-07 05:21 42.18837 1.94503 8722 ft 140 kts 103°
2026-05-07 05:21 42.18348 1.97068 8588 ft 141 kts 103°
2026-05-07 05:21 42.18105 1.98340 8523 ft 141 kts 103°
2026-05-07 05:22 42.17856 1.99629 8436 ft 140 kts 102°
2026-05-07 05:22 42.17616 2.00883 8348 ft 135 kts 102°
2026-05-07 05:22 42.17382 2.02088 8272 ft 133 kts 102°
2026-05-07 05:22 42.17175 2.03300 8197 ft 131 kts 90°
2026-05-07 05:23 42.17261 2.04498 8132 ft 130 kts 79°
2026-05-07 05:23 42.17374 2.05712 8082 ft 128 kts 79°
2026-05-07 05:23 42.17481 2.06891 8081 ft 126 kts 81°
2026-05-07 05:23 42.17585 2.08060 8076 ft 127 kts 81°
2026-05-07 05:24 42.17688 2.09240 8074 ft 127 kts 81°
2026-05-07 05:24 42.17792 2.10437 8073 ft 127 kts 81°
2026-05-07 05:24 42.17894 2.11620 8072 ft 127 kts 81°
2026-05-07 05:24 42.17996 2.12810 8072 ft 127 kts 81°
2026-05-07 05:25 42.18098 2.14003 8072 ft 127 kts 81°
2026-05-07 05:25 42.18200 2.15189 8073 ft 127 kts 81°
2026-05-07 05:25 42.18301 2.16378 8074 ft 127 kts 81°
2026-05-07 05:25 42.18400 2.17535 8121 ft 122 kts 82°
2026-05-07 05:26 42.18502 2.18730 7950 ft 138 kts 80°
2026-05-07 05:26 42.18618 2.20045 7771 ft 138 kts 80°
2026-05-07 05:26 42.18728 2.21312 7741 ft 133 kts 80°
2026-05-07 05:26 42.18827 2.22483 7849 ft 124 kts 81°
2026-05-07 05:27 42.18923 2.23640 7862 ft 125 kts 81°
2026-05-07 05:27 42.19019 2.24789 7935 ft 122 kts 81°
2026-05-07 05:27 42.19114 2.25927 7942 ft 125 kts 81°
2026-05-07 05:27 42.19214 2.27103 7960 ft 124 kts 81°
2026-05-07 05:28 42.19311 2.28261 7979 ft 124 kts 81°
2026-05-07 05:28 42.19407 2.29407 8019 ft 124 kts 81°
2026-05-07 05:28 42.19505 2.30577 8024 ft 125 kts 81°
2026-05-07 05:28 42.19605 2.31766 7964 ft 131 kts 81°
2026-05-07 05:29 42.19710 2.32998 7887 ft 134 kts 80°
2026-05-07 05:29 42.19818 2.34257 7807 ft 134 kts 80°
2026-05-07 05:29 42.19924 2.35511 7729 ft 134 kts 80°
2026-05-07 05:29 42.20031 2.36765 7652 ft 134 kts 80°
2026-05-07 05:30 42.20135 2.38000 7578 ft 134 kts 81°
2026-05-07 05:30 42.20241 2.39260 7501 ft 135 kts 81°
2026-05-07 05:30 42.20347 2.40519 7425 ft 135 kts 81°
2026-05-07 05:30 42.20454 2.41791 7348 ft 135 kts 81°
2026-05-07 05:31 42.20557 2.43030 7271 ft 134 kts 81°
2026-05-07 05:31 42.20660 2.44280 7197 ft 134 kts 81°
2026-05-07 05:31 42.20763 2.45540 7119 ft 134 kts 81°
2026-05-07 05:31 42.20798 2.46779 7003 ft 134 kts 97°
2026-05-07 05:32 42.20588 2.47984 6915 ft 131 kts 102°
2026-05-07 05:32 42.20360 2.49167 6833 ft 128 kts 102°
2026-05-07 05:32 42.20134 2.50327 6756 ft 127 kts 103°
2026-05-07 05:32 42.19910 2.51471 6675 ft 126 kts 103°
2026-05-07 05:33 42.19686 2.52619 6597 ft 126 kts 103°
2026-05-07 05:33 42.19462 2.53760 6517 ft 126 kts 103°
2026-05-07 05:33 42.19237 2.54902 6440 ft 126 kts 103°
2026-05-07 05:33 42.19010 2.56060 6360 ft 126 kts 103°
2026-05-07 05:34 42.18785 2.57198 6285 ft 126 kts 103°
2026-05-07 05:34 42.18561 2.58336 6208 ft 126 kts 103°
2026-05-07 05:34 42.18336 2.59481 6126 ft 126 kts 103°
2026-05-07 05:34 42.18110 2.60623 6047 ft 125 kts 103°
2026-05-07 05:35 42.17887 2.61755 5967 ft 125 kts 103°
2026-05-07 05:35 42.17662 2.62898 5876 ft 126 kts 103°
2026-05-07 05:35 42.17435 2.64050 5771 ft 127 kts 102°
2026-05-07 05:35 42.17208 2.65204 5663 ft 127 kts 103°
2026-05-07 05:36 42.16982 2.66349 5560 ft 127 kts 103°
2026-05-07 05:36 42.16753 2.67512 5455 ft 127 kts 103°
2026-05-07 05:36 42.16524 2.68663 5354 ft 127 kts 103°
2026-05-07 05:36 42.16297 2.69814 5247 ft 127 kts 103°
2026-05-07 05:37 42.16072 2.70951 5140 ft 126 kts 103°
2026-05-07 05:37 42.15844 2.72102 5031 ft 126 kts 103°
2026-05-07 05:37 42.15621 2.73227 4930 ft 125 kts 103°
2026-05-07 05:37 42.15395 2.74367 4825 ft 125 kts 103°
2026-05-07 05:38 42.15168 2.75505 4717 ft 124 kts 103°
2026-05-07 05:38 42.14946 2.76629 4612 ft 124 kts 103°
2026-05-07 05:38 42.14722 2.77752 4505 ft 124 kts 103°
2026-05-07 05:38 42.14502 2.78865 4400 ft 123 kts 103°
2026-05-07 05:39 42.14279 2.79981 4293 ft 123 kts 103°
2026-05-07 05:39 42.14057 2.81092 4193 ft 123 kts 103°
2026-05-07 05:39 42.13835 2.82214 4088 ft 123 kts 103°
2026-05-07 05:39 42.13615 2.83319 3982 ft 123 kts 103°
2026-05-07 05:40 42.13393 2.84430 3878 ft 122 kts 103°
2026-05-07 05:40 42.13172 2.85538 3772 ft 122 kts 103°
2026-05-07 05:40 42.12975 2.86639 3672 ft 121 kts 95°
2026-05-07 05:40 42.13244 2.87696 3594 ft 122 kts 59°
2026-05-07 05:41 42.13716 2.88657 3495 ft 123 kts 56°
2026-05-07 05:41 42.14215 2.89605 3390 ft 124 kts 55°
2026-05-07 05:41 42.14725 2.90548 3280 ft 125 kts 54°
2026-05-07 05:41 42.15245 2.91498 3170 ft 125 kts 54°
2026-05-07 05:42 42.15761 2.92439 3063 ft 125 kts 53°
2026-05-07 05:42 42.16272 2.93360 3026 ft 120 kts 53°
2026-05-07 05:42 42.16764 2.94250 3020 ft 117 kts 53°
2026-05-07 05:42 42.17249 2.95127 3020 ft 116 kts 53°
2026-05-07 05:43 42.17729 2.95997 3020 ft 115 kts 53°
2026-05-07 05:43 42.18210 2.96863 2986 ft 118 kts 53°
2026-05-07 05:43 42.18709 2.97763 2931 ft 119 kts 53°
2026-05-07 05:43 42.19205 2.98656 2877 ft 119 kts 53°
2026-05-07 05:44 42.19553 2.99662 2790 ft 119 kts 72°
2026-05-07 05:44 42.19796 3.00731 2739 ft 118 kts 72°
2026-05-07 05:44 42.20038 3.01777 2687 ft 117 kts 72°
2026-05-07 05:44 42.20289 3.02849 2579 ft 121 kts 71°
2026-05-07 05:45 42.20524 3.03915 2412 ft 117 kts 71°
2026-05-07 05:45 42.20741 3.04950 2272 ft 113 kts 71°
2026-05-07 05:45 42.20965 3.05948 2142 ft 109 kts 65°
2026-05-07 05:45 42.21312 3.06843 2019 ft 108 kts 56°
2026-05-07 05:46 42.21682 3.07712 1867 ft 105 kts 56°
2026-05-07 05:46 42.22026 3.08564 1729 ft 103 kts 56°
2026-05-07 05:46 42.22388 3.09385 1587 ft 102 kts 52°
2026-05-07 05:46 42.22842 3.10111 1431 ft 104 kts 39°
2026-05-07 05:47 42.23395 3.10787 1104 ft 106 kts 32°
2026-05-07 05:47 42.24004 3.11233 853 ft 97 kts 17°
2026-05-07 05:47 42.24584 3.11472 521 ft 91 kts
2026-05-07 05:47 42.25185 3.11322 159 ft 85 kts 333°
2026-05-07 05:48 42.25671 3.11113 50 ft 56 kts 335°
2026-05-07 05:48 42.25887 3.11024 53 ft 8 kts 356°
2026-05-07 05:48 42.25925 3.10983 43 ft 9 kts 297°
2026-05-07 05:48 42.25945 3.10907 31 ft 2 kts 307°
2026-05-07 05:49 42.25959 3.10853 20 ft 6 kts 301°
2026-05-07 05:49 42.25967 3.10821 24 ft 5 kts 281°
2026-05-07 05:49 42.25964 3.10804 15 ft 4 kts 220°
2026-05-07 05:49 42.25959 3.10803 8 ft 0 kts 216°